Weather History for Burley, ID

Change the Weather History Date:

Wednesday, February 26, 2014

  Actual Average Record
Temperature  
Mean Temperature 43 °F 34 °F  
Max Temperature 58 °F 44 °F 69 °F (1950)
Min Temperature 28 °F 24 °F -11 °F (1962)
Degree Days  
Heating Degree Days 22 31  
Month to date heating degree days 761 895  
Since 1 July heating degree days 4651 4961  
Cooling Degree Days 0 0  
Month to date cooling degree days 0 0  
Year to date cooling degree days 0 0  
Moisture  
Dew Point 26 °F    
Average Humidity 61    
Maximum Humidity 82    
Minimum Humidity 40    
Precipitation  
Precipitation 0.00 in 0.03 in 0.35 in (2004)
Month to date precipitation 1.16 0.71  
Year to date precipitation 1.76 1.62  
Sea Level Pressure  
Sea Level Pressure 29.95 in    
Wind  
Wind Speed 11 mph (ENE)    
Max Wind Speed 20 mph    
Max Gust Speed 24 mph    
Visibility 10 miles    
Events      
T = Trace of Precipitation, MM = Missing Value Source: NWS Daily Summary

Daily Weather History Graph

Daily Weather History Graph

Search for Another Location

Airport:

Trip Planner

Search our weather history database for the weather conditions in past years. The results will help you decide how hot, cold, wet, or windy it might be!

Date:

Astronomy

Feb. 26, 2014 Rise Set
Actual Time 7:15 AM MST 6:21 PM MST
Civil Twilight 6:46 AM MST 6:49 PM MST
Nautical Twilight 6:14 AM MST 7:22 PM MST
Astronomical Twilight 5:41 AM MST 7:54 PM MST
Moon 5:07 AM MST (2/26) 3:38 PM MST (2/26)
Length of Visible Light 12h 02m
Length of Day
11h 05m
Waning Crescent, 9% of the Moon is Illuminated
Feb 26
Waning Crescent
Mar 1
New
Mar 8
First Quarter
Mar 16
Full
Mar 23
Last Quarter

Hourly Weather History & Observations

Time (MST) Temp. Windchill Dew Point Humidity Pressure Visibility Wind Dir Wind Speed Gust Speed Precip Events Conditions
12:53 AM 33.1 °F 23.9 °F 19.0 °F 56% 30.05 in 10.0 mi ENE 12.7 mph - N/A   Clear
1:53 AM 30.9 °F 21.7 °F 18.0 °F 59% 30.05 in 10.0 mi ENE 11.5 mph - N/A   Clear
2:53 AM 30.0 °F 20.5 °F 17.1 °F 59% 30.05 in 10.0 mi ENE 11.5 mph - N/A   Clear
3:53 AM 30.0 °F 20.5 °F 17.1 °F 59% 30.04 in 10.0 mi ENE 11.5 mph - N/A   Clear
4:53 AM 28.9 °F 19.8 °F 18.0 °F 64% 30.04 in 10.0 mi ENE 10.4 mph - N/A   Clear
5:53 AM 28.9 °F 18.6 °F 18.0 °F 64% 30.04 in 10.0 mi ENE 12.7 mph - N/A   Clear
6:53 AM 28.9 °F 19.8 °F 19.0 °F 67% 30.06 in 10.0 mi ENE 10.4 mph - N/A   Clear
7:53 AM 28.9 °F 17.7 °F 19.0 °F 67% 30.08 in 10.0 mi ENE 15.0 mph - N/A   Clear
8:53 AM 32.0 °F 23.0 °F 18.0 °F 56% 30.08 in 10.0 mi ENE 11.5 mph - N/A   Clear
9:53 AM 37.0 °F 27.7 °F 19.0 °F 48% 30.06 in 10.0 mi NE 16.1 mph - N/A   Clear
10:53 AM 41.0 °F 33.9 °F 19.9 °F 43% 30.04 in 10.0 mi ENE 12.7 mph - N/A   Clear
11:53 AM 46.0 °F 39.0 °F 25.0 °F 44% 30.00 in 10.0 mi ENE 17.3 mph - N/A   Clear
12:53 PM 51.1 °F - 28.0 °F 41% 29.97 in 10.0 mi ENE 15.0 mph - N/A   Clear
1:53 PM 54.0 °F - 30.0 °F 40% 29.92 in 10.0 mi ENE 13.8 mph - N/A   Clear
2:53 PM 55.9 °F - 32.0 °F 40% 29.89 in 10.0 mi ENE 11.5 mph - N/A   Clear
3:53 PM 57.9 °F - 33.1 °F 39% 29.86 in 10.0 mi ENE 12.7 mph - N/A   Clear
4:53 PM 57.0 °F - 33.1 °F 40% 29.85 in 10.0 mi ENE 11.5 mph - N/A   Clear
5:53 PM 53.1 °F - 34.0 °F 48% 29.83 in 10.0 mi ENE 9.2 mph - N/A   Scattered Clouds
6:53 PM 50.0 °F - 36.0 °F 59% 29.84 in 10.0 mi SSE 4.6 mph - N/A   Partly Cloudy
7:53 PM 48.0 °F - 34.0 °F 58% 29.83 in 10.0 mi NE 11.5 mph - N/A   Clear
8:53 PM 43.0 °F 38.2 °F 33.1 °F 68% 29.83 in 10.0 mi ENE 8.1 mph - N/A   Clear
9:53 PM 41.0 °F 38.0 °F 33.1 °F 73% 29.82 in 10.0 mi ENE 4.6 mph - N/A   Clear
10:53 PM 36.0 °F 33.3 °F 30.9 °F 82% 29.82 in 10.0 mi East 3.5 mph - N/A   Partly Cloudy
11:53 PM 39.0 °F 31.8 °F 33.1 °F 79% 29.76 in 10.0 mi NE 11.5 mph - N/A   Clear